CW4185 Weather Reports


time (UTC)temp
C
wind
direction
speed
KPH
gust
KPH
rain 1hr
cm
rain 24hr
cm
rain mn
cm
humidity
%
barometer
mb
20260901131647 30 2 1.6 8.0 0.00 0.00 0.00 83 1016.6
20260901131146 29 220 1.6 6.4 0.00 0.00 0.00 83 1016.6
20260901130648 30 73 4.8 8.0 0.00 0.00 0.00 83 1016.6
20260901130146 29 43 3.2 8.0 0.00 0.00 0.00 83 1016.6
20260901125647 29 85 3.2 8.0 0.00 0.00 0.00 83 1016.3
20260901125146 29 180 3.2 9.7 0.00 0.00 0.00 83 1016.3
20260901124647 29 91 4.8 11.3 0.00 0.00 0.00 83 1016.3
20260901124146 29 153 4.8 8.0 0.00 0.00 0.00 83 1016.3
20260901123647 28 217 1.6 8.0 0.00 0.00 0.00 84 1016.3
20260901123147 28 66 4.8 8.0 0.00 0.00 0.00 85 1015.9
20260901122646 28 28 6.4 9.7 0.00 0.00 0.00 85 1016.3
20260901122146 28 103 0.0 8.0 0.00 0.00 0.00 86 1015.9
20260901121646 28 22 4.8 9.7 0.00 0.00 0.00 86 1015.9
20260901121148 28 72 3.2 6.4 0.00 0.00 0.00 87 1015.9
20260901120647 27 95 3.2 8.0 0.00 0.00 0.00 87 1015.9
20260901120146 27 42 4.8 6.4 0.00 0.00 0.00 88 1015.6
20260901115646 27 76 4.8 8.0 0.00 0.00 0.00 89 1015.9
20260901115146 27 48 4.8 6.4 0.00 0.00 0.00 89 1015.6
20260901114646 27 36 4.8 6.4 0.00 0.00 0.00 90 1015.6
20260901114148 27 216 1.6 8.0 0.00 0.00 0.00 89 1015.2
20260901113646 27 34 3.2 8.0 0.00 0.00 0.00 89 1015.6
20260901113147 27 100 4.8 4.8 0.00 0.00 0.00 90 1015.2
20260901112646 27 62 0.0 4.8 0.00 0.00 0.00 90 1015.2
20260901112147 27 191 4.8 4.8 0.00 0.00 0.00 89 1015.2
20260901111648 27 74 0.0 4.8 0.00 0.00 0.00 90 1015.2
20260901111146 27 51 0.0 3.2 0.00 0.00 0.00 90 1015.2
20260901110646 27 108 0.0 4.8 0.00 0.00 0.00 90 1015.2
20260901110146 27 124 1.6 8.0 0.00 0.00 0.00 90 1014.9
20260901105646 27 78 4.8 4.8 0.00 0.00 0.00 90 1014.9
20260901105146 27 72 1.6 4.8 0.00 0.00 0.00 90 1014.9
20260901104646 27 116 3.2 4.8 0.00 0.00 0.00 90 1014.9
20260901104147 27 112 0.0 4.8 0.00 0.00 0.00 90 1014.9
20260901103646 27 104 3.2 6.4 0.00 0.00 0.00 90 1014.9
20260901103147 27 49 1.6 4.8 0.00 0.00 0.00 90 1014.9
20260901102647 27 104 3.2 4.8 0.00 0.00 0.00 91 1014.9
20260901102148 27 176 3.2 4.8 0.00 0.00 0.00 90 1014.9
20260901101646 27 155 0.0 3.2 0.00 0.00 0.00 90 1014.6
20260901101147 27 61 3.2 4.8 0.00 0.00 0.00 90 1014.9
20260901100646 27 64 1.6 4.8 0.00 0.00 0.00 90 1014.6
20260901100146 27 142 0.0 4.8 0.00 0.00 0.00 89 1014.9
20260901095646 27 97 1.6 8.0 0.00 0.00 0.00 89 1014.6
20260901095149 27 77 4.8 6.4 0.00 0.00 0.00 89 1014.9
20260901094646 27 102 3.2 8.0 0.00 0.00 0.00 89 1014.6
20260901094146 27 294 3.2 8.0 0.00 0.00 0.00 89 1014.6
20260901093648 27 147 6.4 6.4 0.00 0.00 0.00 89 1014.6
20260901093147 27 158 3.2 4.8 0.00 0.00 0.00 89 1014.9
20260901092647 27 168 3.2 3.2 0.00 0.00 0.00 89 1014.6
20260901092146 27 60 3.2 4.8 0.00 0.00 0.00 89 1014.9
20260901091646 27 59 1.6 6.4 0.00 0.00 0.00 89 1014.9
20260901091146 27 146 0.0 4.8 0.00 0.00 0.00 89 1014.9
20260901090647 27 210 1.6 6.4 0.00 0.00 0.00 89 1014.9
20260901090147 27 81 1.6 8.0 0.00 0.00 0.00 89 1014.9
20260901085646 27 31 3.2 4.8 0.00 0.00 0.00 89 1014.9
20260901085146 27 144 1.6 8.0 0.00 0.00 0.00 89 1014.9
20260901084646 27 93 1.6 8.0 0.00 0.00 0.00 89 1014.9
20260901084146 27 192 0.0 8.0 0.00 0.00 0.00 89 1014.6
20260901083647 27 170 3.2 8.0 0.00 0.00 0.00 89 1014.6
20260901083146 27 145 11.3 11.3 0.00 0.00 0.00 89 1014.9
20260901082649 27 74 3.2 6.4 0.00 0.00 0.00 89 1014.9
20260901082147 27 97 4.8 9.7 0.00 0.00 0.00 89 1014.6
20260901081647 27 64 1.6 4.8 0.00 0.00 0.00 89 1014.6
20260901081146 27 97 3.2 6.4 0.00 0.00 0.00 89 1014.9
20260901080647 27 125 4.8 6.4 0.00 0.00 0.00 89 1014.9
20260901080147 27 217 0.0 4.8 0.00 0.00 0.00 89 1014.9
20260901075647 27 63 8.0 8.0 0.00 0.00 0.00 89 1014.6
20260901075147 27 6 0.0 6.4 0.00 0.00 0.00 88 1014.9
20260901074646 27 107 1.6 4.8 0.00 0.00 0.00 89 1014.9
20260901074146 27 164 3.2 6.4 0.00 0.00 0.00 89 1014.9
20260901073646 27 144 3.2 8.0 0.00 0.00 0.00 89 1014.9
20260901073147 27 138 4.8 11.3 0.00 0.00 0.00 89 1014.9
20260901072646 27 145 6.4 8.0 0.00 0.00 0.00 90 1015.2
20260901072147 27 150 4.8 8.0 0.00 0.00 0.00 90 1014.9
20260901071647 27 149 1.6 8.0 0.00 0.00 0.00 90 1014.9
20260901071147 27 173 4.8 8.0 0.00 0.00 0.00 90 1015.2
20260901070649 27 119 1.6 6.4 0.00 0.00 0.00 90 1015.2
20260901070146 27 92 3.2 4.8 0.00 0.00 0.00 90 1015.2
20260901065646 27 154 1.6 4.8 0.00 0.00 0.00 90 1015.2
20260901065148 27 160 3.2 6.4 0.00 0.00 0.00 91 1015.2
20260901064646 27 127 6.4 6.4 0.00 0.00 0.00 91 1015.2
20260901064146 27 166 3.2 9.7 0.00 0.00 0.00 91 1015.2
20260901063647 27 160 6.4 8.0 0.00 0.00 0.00 91 1015.6
20260901063146 27 156 4.8 4.8 0.00 0.00 0.00 90 1015.6
20260901062646 27 143 4.8 6.4 0.00 0.00 0.00 90 1015.2
20260901062146 27 94 1.6 6.4 0.00 0.00 0.00 90 1015.2
20260901061647 27 155 3.2 6.4 0.00 0.00 0.00 90 1015.2
20260901061146 27 127 1.6 4.8 0.00 0.00 0.00 90 1015.2
20260901060646 27 122 1.6 3.2 0.00 0.00 0.00 90 1015.2
20260901060147 27 113 0.0 3.2 0.00 0.00 0.00 90 1015.2
20260901055647 27 152 3.2 6.4 0.00 0.00 0.00 90 1015.2
20260901055147 27 167 3.2 6.4 0.00 0.00 0.00 89 1015.6
20260901054646 27 155 1.6 6.4 0.00 0.00 0.00 90 1015.2
20260901054147 27 146 1.6 4.8 0.00 0.00 0.00 89 1015.2
20260901053646 27 208 0.0 3.2 0.00 0.00 0.00 88 1015.2
20260901053147 27 104 3.2 4.8 0.00 0.00 0.00 88 1015.6
20260901052646 27 34 3.2 8.0 0.00 0.00 0.00 88 1015.2
20260901052146 27 60 4.8 8.0 0.00 0.00 0.00 89 1015.2
20260901051648 27 140 3.2 6.4 0.00 0.00 0.00 89 1015.2
20260901051146 27 67 3.2 8.0 0.00 0.00 0.00 89 1015.6
20260901050647 27 57 4.8 6.4 0.00 0.00 0.00 89 1015.6
20260901050146 27 76 6.4 6.4 0.00 0.00 0.00 89 1015.6
20260901045646 27 73 4.8 6.4 0.00 0.00 1.91 88 1015.6
20260901045146 27 20 4.8 6.4 0.00 0.00 1.91 88 1015.9
20260901044646 27 92 3.2 6.4 0.00 0.00 1.91 88 1015.9
20260901044146 27 158 3.2 8.0 0.00 0.00 1.91 88 1015.9
20260901043647 27 69 3.2 8.0 0.00 0.00 1.91 88 1015.6
20260901043146 27 66 1.6 4.8 0.00 0.00 1.91 88 1015.6
20260901042646 27 233 0.0 4.8 0.00 0.00 1.91 88 1015.6
20260901042146 27 92 4.8 8.0 0.00 0.00 1.91 87 1015.9
20260901041646 27 74 4.8 9.7 0.00 0.00 1.91 87 1015.6
20260901041147 27 81 4.8 8.0 0.00 0.00 1.91 87 1015.6
20260901040647 27 98 3.2 6.4 0.00 0.00 1.91 87 1015.6
20260901040147 27 95 3.2 8.0 0.00 0.00 1.91 87 1015.6
20260901035646 28 89 4.8 4.8 0.00 0.00 1.91 87 1015.6
20260901035146 28 77 1.6 8.0 0.00 0.00 1.91 87 1015.6
20260901034646 28 82 4.8 9.7 0.00 0.00 1.91 87 1015.6
20260901034147 28 77 6.4 9.7 0.00 0.00 1.91 87 1015.6
20260901033647 28 100 3.2 9.7 0.00 0.00 1.91 86 1015.6
20260901033146 27 78 6.4 9.7 0.00 0.00 1.91 87 1015.6
20260901032647 27 93 4.8 8.0 0.00 0.00 1.91 87 1015.6
20260901032146 27 63 6.4 8.0 0.00 0.00 1.91 86 1015.2
20260901031647 28 37 4.8 4.8 0.00 0.00 1.91 86 1015.2
20260901031146 28 138 9.7 9.7 0.00 0.00 1.91 86 1015.2
20260901030647 28 72 4.8 4.8 0.00 0.00 1.91 85 1015.2
20260901030146 28 80 1.6 8.0 0.00 0.00 1.91 85 1015.2
20260901025646 28 78 8.0 11.3 0.00 0.00 1.91 85 1015.2
20260901025147 28 83 4.8 11.3 0.00 0.00 1.91 84 1015.2
20260901024647 28 76 6.4 9.7 0.00 0.00 1.91 84 1015.2
20260901024147 28 93 4.8 9.7 0.00 0.00 1.91 84 1015.2
20260901023648 28 30 6.4 8.0 0.00 0.00 1.91 83 1015.2
20260901023147 28 43 4.8 11.3 0.00 0.00 1.91 83 1014.9
20260901022647 28 84 4.8 8.0 0.00 0.00 1.91 83 1014.9
20260901022148 28 68 4.8 11.3 0.00 0.00 1.91 83 1014.9
20260901021647 28 68 8.0 8.0 0.00 0.00 1.91 82 1014.9
20260901021147 28 87 9.7 11.3 0.00 0.00 1.91 81 1015.2
20260901020649 28 99 3.2 16.1 0.00 0.00 1.91 81 1015.2
20260901020146 28 83 11.3 19.3 0.00 0.00 1.91 80 1015.2
20260901015651 28 66 11.3 17.7 0.00 0.00 1.91 80 1014.9
20260901015147 28 77 3.2 9.7 0.00 0.00 1.91 81 1015.2
20260901014647 28 89 4.8 9.7 0.00 0.00 1.91 81 1014.9
20260901014146 28 115 3.2 9.7 0.00 0.00 1.91 81 1014.9
20260901013648 28 62 8.0 17.7 0.00 0.00 1.91 80 1014.6
20260901013146 28 74 9.7 11.3 0.00 0.00 1.91 80 1014.6
20260901012651 28 68 12.9 19.3 0.00 0.00 1.91 79 1014.2
20260901012149 28 75 12.9 12.9 0.00 0.00 1.91 80 1014.2
20260901011647 28 37 8.0 11.3 0.00 0.00 1.91 81 1014.2
20260901011147 28 70 8.0 12.9 0.00 0.00 1.91 81 1014.2
20260901010647 28 81 8.0 17.7 0.00 0.00 1.91 81 1014.6
20260901010146 28 60 6.4 12.9 0.00 0.00 1.91 81 1014.2
20260901005646 28 83 8.0 12.9 0.00 0.00 1.91 80 1014.2
20260901005147 28 64 8.0 12.9 0.00 0.00 1.91 79 1014.2
20260901004651 28 81 3.2 11.3 0.00 0.00 1.91 79 1014.2
20260901004146 28 144 1.6 14.5 0.00 0.00 1.91 78 1014.2
20260901003647 29 78 6.4 14.5 0.00 0.00 1.91 77 1014.2
20260901003146 29 57 4.8 12.9 0.00 0.00 1.91 76 1014.2
20260901002647 29 59 0.0 11.3 0.00 0.00 1.91 75 1014.2
20260901002146 29 72 6.4 12.9 0.00 0.00 1.91 74 1014.2
20260901001648 29 87 6.4 14.5 0.00 0.00 1.91 74 1014.2
20260901001146 29 108 1.6 17.7 0.00 0.00 1.91 74 1014.2
20260901000647 30 63 4.8 11.3 0.00 0.00 1.91 74 1014.2
20260901000146 30 230 1.6 9.7 0.00 0.00 1.91 73 1014.2
20260831235646 30 120 6.4 14.5 0.00 0.00 1.91 73 1014.2
20260831235146 30 111 3.2 9.7 0.00 0.00 1.91 73 1014.6
20260831234648 30 65 4.8 8.0 0.00 0.00 1.91 74 1014.2
20260831234147 30 352 0.0 6.4 0.00 0.00 1.91 74 1014.6
20260831233646 30 135 1.6 9.7 0.00 0.00 1.91 73 1014.6
20260831233146 30 57 0.0 9.7 0.00 0.00 1.91 73 1014.6
20260831232646 30 64 8.0 17.7 0.00 0.00 1.91 72 1014.6
20260831232147 30 92 8.0 11.3 0.00 0.00 1.91 71 1014.9
20260831231646 30 73 8.0 19.3 0.00 0.00 1.91 70 1014.9
20260831231146 30 79 4.8 8.0 0.00 0.00 1.91 69 1014.9
20260831230646 30 100 9.7 14.5 0.00 0.00 1.91 68 1014.9
20260831230146 30 34 3.2 11.3 0.00 0.00 1.91 68 1014.9
20260831225646 31 67 9.7 14.5 0.00 0.00 1.91 67 1014.9
20260831225146 31 74 6.4 11.3 0.00 0.00 1.91 68 1014.6
20260831224646 30 97 4.8 11.3 0.00 0.00 1.91 71 1014.9
20260831224146 30 103 4.8 9.7 0.00 0.00 1.91 72 1014.9
20260831223647 30 69 8.0 19.3 0.00 0.00 1.91 71 1014.9
20260831223146 30 62 8.0 14.5 0.00 0.00 1.91 71 1014.9
20260831222646 31 84 11.3 20.9 0.00 0.00 1.91 69 1015.2
20260831222146 31 84 4.8 11.3 0.00 0.00 1.91 69 1014.9
20260831221646 31 74 8.0 12.9 0.00 0.00 1.91 69 1014.9
20260831221147 31 70 9.7 19.3 0.00 0.00 1.91 69 1014.9
20260831220647 31 59 6.4 12.9 0.00 0.00 1.91 69 1014.9
20260831220147 31 76 4.8 11.3 0.00 0.00 1.91 69 1014.9
20260831215646 31 35 4.8 17.7 0.00 0.00 1.91 67 1014.6
20260831215146 31 186 1.6 17.7 0.00 0.00 1.91 66 1014.9
20260831214646 31 159 8.0 16.1 0.00 0.00 1.91 67 1014.9
20260831214146 31 71 8.0 17.7 0.00 0.00 1.91 66 1014.9
20260831213647 31 130 3.2 12.9 0.00 0.00 1.91 68 1014.6
20260831213147 31 64 6.4 11.3 0.00 0.00 1.91 67 1014.9
20260831212646 31 95 8.0 11.3 0.00 0.00 1.91 66 1014.9
20260831212153 31 43 9.7 14.5 0.00 0.00 1.91 67 1014.9
20260831211649 31 125 4.8 17.7 0.00 0.00 1.91 70 1014.9
20260831211146 31 101 6.4 17.7 0.00 0.00 1.91 71 1014.9
20260831210647 31 111 9.7 11.3 0.00 0.00 1.91 71 1014.9
20260831210149 31 73 9.7 14.5 0.00 0.00 1.91 70 1015.2
20260831205647 31 99 11.3 19.3 0.00 0.00 1.91 70 1015.2
20260831205147 31 57 6.4 16.1 0.00 0.00 1.91 70 1014.9
20260831204646 31 81 9.7 19.3 0.00 0.00 1.91 70 1015.2
20260831204148 31 102 3.2 11.3 0.00 0.00 1.91 71 1014.9
20260831203646 31 38 8.0 19.3 0.00 0.00 1.91 72 1014.9
20260831203147 31 80 8.0 17.7 0.00 0.00 1.91 71 1014.9
20260831202648 30 41 3.2 19.3 0.00 0.00 1.91 73 1015.2
20260831202148 31 79 6.4 20.9 0.00 0.00 1.91 71 1014.9
20260831201647 31 59 9.7 24.1 0.00 0.00 1.91 72 1015.2
20260831201147 31 92 9.7 16.1 0.00 0.00 1.91 69 1015.2
20260831200646 32 85 11.3 19.3 0.00 0.00 1.91 69 1015.2
20260831200147 31 20 3.2 11.3 0.00 0.00 1.91 69 1015.2
20260831195647 31 65 11.3 16.1 0.00 0.00 1.91 69 1015.2
20260831195146 31 75 9.7 12.9 0.00 0.00 1.91 73 1015.6
20260831194646 30 78 9.7 20.9 0.00 0.00 1.91 74 1015.6
20260831194148 30 73 9.7 22.5 0.00 0.00 1.91 74 1015.6
20260831193648 30 74 12.9 17.7 0.00 0.00 1.91 75 1015.9
20260831193147 30 103 4.8 6.4 0.00 0.00 1.91 80 1015.9
20260831192646 29 63 0.0 9.7 0.00 0.00 1.91 81 1015.9
20260831192150 28 155 0.0 11.3 0.00 0.00 1.91 82 1015.6
20260831191649 28 154 8.0 9.7 0.00 0.00 1.91 84 1015.9
20260831191148 28 175 4.8 12.9 0.00 0.00 1.91 86 1015.9
20260831190656 27 150 8.0 11.3 0.00 0.00 1.91 90 1015.6
20260831190147 27 167 8.0 11.3 0.00 0.00 1.91 91 1015.9
20260831185646 27 189 8.0 8.0 0.00 0.00 1.91 93 1015.9
20260831185146 26 179 3.2 9.7 0.00 0.00 1.91 94 1015.9
20260831184648 26 174 4.8 9.7 1.55 0.00 1.91 93 1016.3
20260831184147 26 221 8.0 22.5 3.84 0.00 1.91 91 1016.3
20260831183647 27 95 8.0 14.5 1.75 0.00 1.50 88 1016.3
20260831183147 28 125 3.2 19.3 0.36 0.00 1.27 85 1016.3
20260831182647 29 54 14.5 17.7 0.00 0.00 1.22 79 1016.3
20260831182146 30 62 11.3 14.5 0.00 0.00 1.22 78 1016.3
20260831181646 29 44 9.7 22.5 0.00 0.00 1.22 78 1016.3
20260831181147 29 78 4.8 24.1 0.00 0.00 1.22 78 1016.3
20260831180647 28 55 11.3 24.1 0.00 0.00 1.22 82 1016.3
20260831180149 27 41 6.4 14.5 0.00 0.00 1.22 87 1016.6
20260831175646 27 52 14.5 20.9 0.00 0.00 1.22 84 1016.9
20260831175146 27 58 11.3 22.5 0.00 0.00 1.22 84 1016.6
20260831174646 29 64 17.7 27.4 0.00 0.00 1.22 76 1016.3
20260831174147 29 53 16.1 30.6 0.00 0.00 1.22 76 1016.3
20260831173646 29 74 8.0 25.7 0.00 0.00 1.22 77 1016.6
20260831173147 29 76 16.1 29.0 0.36 0.00 1.22 82 1016.6
20260831172646 27 73 12.9 17.7 0.84 0.00 1.22 87 1016.3
20260831172147 29 55 12.9 24.1 0.48 0.00 1.14 82 1016.6
20260831171647 30 34 8.0 27.4 0.00 0.00 1.07 77 1016.6
20260831171146 30 67 11.3 14.5 0.00 0.00 1.07 75 1016.6
20260831170646 30 53 12.9 17.7 0.00 0.00 1.07 74 1016.6
20260831170147 30 48 14.5 20.9 0.00 0.00 1.07 75 1016.6
20260831165648 30 50 8.0 16.1 0.00 0.00 1.07 76 1016.6
20260831165146 30 10 8.0 8.0 0.00 0.00 1.07 78 1016.6
20260831164650 30 24 12.9 16.1 0.00 0.00 1.07 78 1016.6
20260831164146 30 26 4.8 12.9 0.00 0.00 1.07 77 1016.6
20260831163648 30 54 6.4 9.7 0.00 0.00 1.07 77 1016.6
20260831163146 30 35 9.7 17.7 0.00 0.00 1.07 78 1016.6
20260831162647 30 51 12.9 14.5 0.00 0.00 1.07 78 1016.9
20260831162146 30 80 4.8 20.9 0.00 0.00 1.07 76 1016.9
20260831161649 30 35 9.7 19.3 0.00 0.00 1.07 76 1016.9
20260831161148 30 85 8.0 17.7 0.00 0.00 1.07 72 1016.9
20260831160647 30 123 11.3 19.3 0.00 0.00 1.07 72 1016.9
20260831160146 30 51 12.9 17.7 0.00 0.00 1.07 72 1016.9
20260831155647 30 95 4.8 11.3 0.00 0.00 1.07 73 1016.9
20260831155147 30 63 9.7 17.7 0.00 0.00 1.07 73 1016.9
20260831154647 30 123 8.0 19.3 0.00 0.00 1.07 75 1016.9
20260831154146 30 58 17.7 17.7 0.00 0.00 1.07 75 1016.9
20260831153647 29 35 11.3 29.0 0.00 0.00 1.07 81 1016.6
20260831153148 28 58 9.7 9.7 0.00 0.00 1.07 87 1016.3
20260831152651 27 63 4.8 8.0 0.00 0.00 1.07 89 1016.3
20260831152147 27 51 4.8 4.8 0.00 0.00 1.07 90 1016.3
20260831151646 26 325 3.2 6.4 0.00 0.00 1.07 90 1016.6
20260831151148 26 44 0.0 8.0 0.00 0.00 1.07 89 1016.6
20260831150646 26 16 3.2 11.3 0.00 0.00 1.07 89 1016.6
20260831150148 26 19 3.2 8.0 0.00 0.00 1.07 90 1016.6
20260831145648 26 13 1.6 9.7 0.13 0.00 1.07 93 1016.3
20260831145147 26 32 4.8 14.5 2.95 0.00 1.07 93 1016.6
20260831144648 26 45 14.5 17.7 3.00 0.00 1.02 91 1016.6
20260831144147 29 146 11.3 35.4 0.97 0.00 0.69 81 1016.6
20260831143646 30 59 8.0 11.3 0.00 0.00 0.51 76 1015.9
20260831143146 30 174 4.8 16.1 0.00 0.00 0.51 76 1016.3
20260831142647 30 72 12.9 16.1 0.00 0.00 0.51 76 1015.9
20260831142147 30 39 6.4 12.9 0.00 0.00 0.51 76 1015.9
20260831141646 30 66 14.5 17.7 0.00 0.00 0.51 77 1015.9
20260831141147 30 64 12.9 17.7 0.00 0.00 0.51 77 1015.9
20260831140647 30 9 4.8 11.3 0.00 0.00 0.51 79 1015.9
20260831140147 30 113 8.0 20.9 0.00 0.00 0.51 79 1016.3
20260831135646 30 62 9.7 11.3 0.00 0.00 0.51 80 1015.9
20260831135146 29 61 11.3 17.7 0.00 0.00 0.51 81 1015.9
20260831134647 29 67 11.3 12.9 0.00 0.00 0.51 81 1015.9
20260831134146 29 68 9.7 11.3 0.00 0.00 0.51 82 1015.9
20260831133646 29 69 12.9 14.5 0.00 0.00 0.51 83 1015.9
20260831133147 28 38 4.8 11.3 0.00 0.00 0.51 85 1015.9
20260831132646 28 65 6.4 9.7 0.00 0.00 0.51 86 1015.9
20260831132147 28 59 4.8 9.7 0.00 0.00 0.51 87 1015.9